Regional Weather Roundup
Issued by NWS Midland/Odessa, TX

Home | Current Version | Previous Version | Text Only | Print | Product List | Glossary On
Versions: 1 2 3 4 5 6 7 8 9 10 11 12 13 14 15 16 17 18 19 20 21 22 23 24 25 26 27 28 29 30 31 32 33 34 35 36 37 38 39 40 41 42 43 44 45 46 47 48 49 50
000
ASUS44 KMAF 231710
RWRMAF
MIDLAND AREA WEATHER ROUNDUP
NATIONAL WEATHER SERVICE MIDLAND TX
1200 PM CDT WED APR 23 2014

...IN SOUTHWEST TEXAS AND SOUTHEAST NEW MEXICO...

CITY           SKY/WX    TMP DP  RH WIND       PRES   REMARKS
ALPINE         MOSUNNY   80  37  21 SW20G29   29.99F
ANDREWS        FAIR      80  52  37 SW17G24   29.84F
ARTESIA        PTSUNNY   79  27  14 SW23G32   29.82F
BIG SPRING     MOSUNNY   81  58  44 S17G25    29.86F
CARLSBAD       CLOUDY    81  24  12 W21G29    29.83F
DRYDEN           N/A     84  57  39 SE8       29.84F
FORT STOCKTON  MOSUNNY   87  40  19 W18G29    29.84F
GUAD PASS      MOSUNNY   73  28  18 W28       29.97F
HOBBS          PTSUNNY   79  45  29 SW16G22   29.86F
MARFA          MOSUNNY   79  34  19 SW13      29.99F
MIDLAND AIRPK  SUNNY     83  52  34 S18G29    29.84F
MIDLAND INTL   MOSUNNY   83  54  36 S17G29    29.84F
ODESSA           N/A    N/A N/A N/A MISG      29.85F
PECOS          PTSUNNY   83  51  32 SW3       29.82F
PRESIDIO       FAIR      87  26  11 W9        29.86F
SEMINOLE       MOSUNNY   80  49  33 SW16G22   29.85F
SNYDER         MOSUNNY   81  58  45 S25G33    29.84F
WINK           PTSUNNY   83  49  30 S14G22    29.81F
$$
...OTHER STATIONS IN TEXAS...

CITY           SKY/WX    TMP DP  RH WIND       PRES   REMARKS
ABILENE        MOSUNNY   81  59  47 S23G32    29.85F
AMARILLO       MOSUNNY   77  51  40 S33G44    29.78F
AUSTIN         MOSUNNY   81  65  58 S12       29.91F
BROWNSVILLE    MOSUNNY   83  66  56 S17       29.91F
CORPUS CHRISTI MOSUNNY   84  66  54 S13       29.92F
DALLAS FTW     MOSUNNY   81  62  52 S14       29.90F
DEL RIO        SUNNY     84  65  52 SE17G26   29.84F
EL PASO        MOSUNNY   76  25  15 W18G24    29.90F
HOUSTON INT    PTSUNNY   77  66  68 S10G20    29.97S
LUBBOCK        CLOUDY    77  54  44 S24G32    29.82F
SAN ANGELO     PTSUNNY   83  58  42 S24G32    29.85F
SAN ANTONIO    MOSUNNY   84  64  50 SE15      29.91F
WACO           SUNNY     82  63  52 S16       29.91F
WICHITA FALLS  NOT AVBL
$$
...OTHER LOCATIONS IN NEW MEXICO...

CITY           SKY/WX    TMP DP  RH WIND       PRES   REMARKS
ALAMAGORDO     MOSUNNY   75  23  14 SW12G23   29.90F
ALBUQUERQUE    MOSUNNY   68  23  18 SW14G25   29.88F
CANNON AFB     CLOUDY    76  38  25 SW24G31   29.82S
CLOVIS         PTSUNNY   77  46  33 SW23G29   29.84F
HOLLOMAN AFB   MOSUNNY   76  25  15 S12G20    29.89S
ROSWELL        MOSUNNY   83  24  11 W17G28    29.80F
RUIDOSO        MOSUNNY   63  19  19 SW25G33   29.97F
SANTA FE       SUNNY     65  22  19 W17G26    29.89F
TRUTH OR CONSE SUNNY     73  17  12 SW14      29.87F
TUCUMCARI      CLOUDY    75  43  31 SW17      29.76F
$$



USA.gov is the U.S. government's official web portal to all federal, state and local government web resources and services.